�������l�o���
Date,Time,MP-1(��Sv/h),MP-2(��Sv/h),MP-3(��Sv/h),MP-4(��Sv/h),MP-5(��Sv/h),MP-6(��Sv/h),MP-7(��Sv/h),MP-8(��Sv/h),����,����(m/s),���J
2016/10/01,00:00,1.123,1.861,1.332,2.035,1.422,0.599,1.056,0.975,��,4.4,��
2016/10/01,00:10,1.122,1.862,1.330,2.035,1.422,0.598,1.054,0.977,��쐼,4.9,��
2016/10/01,00:20,1.122,1.861,1.331,2.036,1.420,0.600,1.056,0.977,��,4.4,��
2016/10/01,00:30,1.122,1.864,1.332,2.034,1.422,0.596,1.056,0.976,��쐼,3.9,��
2016/10/01,00:40,1.122,1.860,1.330,2.034,1.422,0.597,1.054,0.975,��,4.4,��
2016/10/01,00:50,1.118,1.865,1.331,2.036,1.424,0.597,1.054,0.976,��,4.4,��
2016/10/01,01:00,1.121,1.861,1.330,2.036,1.422,0.597,1.053,0.978,��,4.1,��
2016/10/01,01:10,1.122,1.862,1.328,2.032,1.421,0.597,1.052,0.977,��쐼,3.8,��
2016/10/01,01:20,1.122,1.861,1.330,2.035,1.420,0.596,1.052,0.978,��쐼,4.1,��
2016/10/01,01:30,1.123,1.860,1.329,2.035,1.421,0.596,1.053,0.977,�쐼,3.8,��
2016/10/01,01:40,1.121,1.864,1.330,2.036,1.423,0.596,1.053,0.977,��쐼,3.3,��
2016/10/01,01:50,1.124,1.863,1.332,2.036,1.419,0.597,1.054,0.977,�쐼,2.0,��
2016/10/01,02:00,1.121,1.862,1.328,2.036,1.426,0.597,1.053,0.976,���k��,0.8,��
2016/10/01,02:10,1.123,1.862,1.331,2.038,1.422,0.596,1.054,0.976,���k��,0.8,��
2016/10/01,02:20,1.126,1.864,1.333,2.035,1.422,0.598,1.053,0.977,�k�k��,0.8,��
2016/10/01,02:30,1.122,1.860,1.330,2.036,1.422,0.596,1.055,0.976,�k�k��,0.9,��
2016/10/01,02:40,1.122,1.862,1.331,2.036,1.422,0.597,1.051,0.976,�k,1.4,��
2016/10/01,02:50,1.121,1.864,1.333,2.031,1.421,0.596,1.053,0.976,�k�k��,2.0,��
2016/10/01,03:00,1.123,1.863,1.330,2.036,1.420,0.597,1.053,0.976,�k��,3.1,��
2016/10/01,03:10,1.122,1.861,1.331,2.036,1.421,0.595,1.053,0.974,�k��,3.8,��
2016/10/01,03:20,1.123,1.862,1.333,2.036,1.421,0.596,1.054,0.975,�k��,4.6,�L
2016/10/01,03:30,1.123,1.859,1.327,2.034,1.419,0.597,1.052,0.975,�k��,3.8,�L
2016/10/01,03:40,1.122,1.858,1.330,2.034,1.420,0.596,1.055,0.976,���k��,4.5,��
2016/10/01,03:50,1.121,1.859,1.331,2.034,1.420,0.595,1.052,0.977,���k��,4.4,�L
2016/10/01,04:00,1.121,1.856,1.327,2.035,1.419,0.596,1.052,0.977,���k��,4.4,�L
2016/10/01,04:10,1.122,1.860,1.327,2.034,1.418,0.596,1.051,0.978,�k��,6.3,�L
2016/10/01,04:20,1.120,1.856,1.328,2.032,1.418,0.596,1.050,0.976,���k��,5.5,�L
2016/10/01,04:30,1.120,1.855,1.328,2.035,1.418,0.597,1.051,0.974,�k��,4.5,��
2016/10/01,04:40,1.121,1.858,1.330,2.033,1.417,0.595,1.052,0.977,�k��,4.9,��
2016/10/01,04:50,1.121,1.857,1.328,2.035,1.417,0.596,1.051,0.974,�k�k��,4.1,��
2016/10/01,05:00,1.119,1.856,1.331,2.033,1.416,0.597,1.053,0.976,�k�k��,4.1,��
2016/10/01,05:10,1.118,1.853,1.329,2.033,1.416,0.594,1.052,0.977,�k�k��,3.5,��
2016/10/01,05:20,1.118,1.854,1.328,2.032,1.415,0.596,1.052,0.975,�k�k��,3.3,��
2016/10/01,05:30,1.118,1.855,1.326,2.035,1.416,0.596,1.051,0.977,�k�k��,5.2,��
2016/10/01,05:40,1.118,1.854,1.328,2.033,1.418,0.598,1.053,0.975,�k�k��,5.5,��
2016/10/01,05:50,1.120,1.857,1.326,2.032,1.417,0.595,1.052,0.977,�k�k��,3.8,��
2016/10/01,06:00,1.120,1.855,1.327,2.033,1.418,0.595,1.053,0.975,�k�k��,3.4,��
2016/10/01,06:10,1.120,1.857,1.328,2.034,1.418,0.596,1.054,0.975,�k�k��,3.6,��
2016/10/01,06:20,1.118,1.857,1.325,2.033,1.416,0.595,1.053,0.974,�k�k��,4.4,��
2016/10/01,06:30,1.120,1.854,1.326,2.032,1.416,0.595,1.052,0.973,�k�k��,4.4,��
2016/10/01,06:40,1.119,1.855,1.328,2.035,1.416,0.594,1.052,0.974,�k,4.1,��
2016/10/01,06:50,1.119,1.857,1.328,2.034,1.415,0.594,1.053,0.976,�k,3.8,��
2016/10/01,07:00,1.117,1.856,1.328,2.036,1.419,0.594,1.053,0.976,�k,5.0,��
2016/10/01,07:10,1.120,1.856,1.329,2.032,1.419,0.596,1.054,0.974,�k�k��,4.4,��
2016/10/01,07:20,1.119,1.851,1.320,2.036,1.417,0.596,1.052,0.974,�k�k��,3.4,��
2016/10/01,07:30,1.118,1.855,1.321,2.033,1.420,0.593,1.051,0.976,�k,3.6,��
2016/10/01,07:40,1.119,1.854,1.327,2.035,1.418,0.595,1.054,0.976,�k,3.3,��
2016/10/01,07:50,1.121,1.855,1.326,2.034,1.415,0.594,1.053,0.976,�k�k��,3.9,��
2016/10/01,08:00,1.120,1.854,1.327,2.034,1.419,0.593,1.051,0.977,�k�k��,4.6,��
2016/10/01,08:10,1.119,1.853,1.330,2.037,1.417,0.594,1.052,0.977,�k�k��,4.4,��
2016/10/01,08:20,1.120,1.854,1.332,2.036,1.420,0.593,1.050,0.976,�k�k��,3.8,��
2016/10/01,08:30,1.118,1.855,1.332,2.035,1.417,0.594,1.051,0.975,�k�k��,3.4,��
2016/10/01,08:40,1.122,1.858,1.332,2.037,1.417,0.594,1.049,0.974,�k�k��,4.1,��
2016/10/01,08:50,1.121,1.858,1.330,2.037,1.417,0.594,1.051,0.972,�k�k��,4.1,��
2016/10/01,09:00,1.124,1.859,1.331,2.035,1.418,0.596,1.051,0.974,�k�k��,4.1,��
2016/10/01,09:10,1.119,1.858,1.331,2.036,1.421,0.594,1.053,0.975,�k�k��,3.4,��
2016/10/01,09:20,1.123,1.860,1.333,2.039,1.420,0.594,1.052,0.976,�k,3.6,��
2016/10/01,09:30,1.120,1.860,1.333,2.038,1.422,0.592,1.051,0.976,�k�k��,3.8,��
2016/10/01,09:40,1.121,1.862,1.333,2.037,1.419,0.594,1.051,0.973,�k,3.4,��
2016/10/01,09:50,1.118,1.858,1.333,2.037,1.419,0.591,1.051,0.975,�k,4.2,��
2016/10/01,10:00,1.119,1.850,1.333,2.039,1.420,0.592,1.053,0.975,�k,4.5,��
2016/10/01,10:10,1.120,1.852,1.331,2.042,1.421,0.592,1.053,0.971,�k,4.6,��
2016/10/01,10:20,1.118,1.855,1.332,2.040,1.420,0.595,1.054,0.972,�k,5.6,��
2016/10/01,10:30,1.120,1.856,1.331,2.041,1.422,0.592,1.054,0.974,�k,6.0,��
2016/10/01,10:40,1.121,1.862,1.331,2.041,1.423,0.593,1.054,0.974,�k�k��,4.6,��
2016/10/01,10:50,1.122,1.860,1.331,2.039,1.423,0.593,1.054,0.975,�k�k��,5.2,��
2016/10/01,11:00,1.122,1.861,1.333,2.040,1.424,0.593,1.053,0.975,�k��,5.0,��
2016/10/01,11:10,1.120,1.858,1.333,2.039,1.424,0.594,1.054,0.973,�k�k��,4.9,��
2016/10/01,11:20,1.125,1.861,1.335,2.044,1.423,0.594,1.054,0.974,�k�k��,4.9,��
2016/10/01,11:30,1.122,1.861,1.332,2.040,1.423,0.595,1.054,0.975,�k�k��,5.6,��
2016/10/01,11:40,1.123,1.866,1.333,2.040,1.425,0.591,1.055,0.974,�k�k��,5.2,��
2016/10/01,11:50,1.122,1.863,1.334,2.043,1.425,0.593,1.055,0.974,�k�k��,5.2,��
2016/10/01,12:00,1.123,1.865,1.334,2.040,1.427,0.593,1.054,0.973,�k�k��,4.4,��
2016/10/01,12:10,1.120,1.863,1.333,2.038,1.425,0.593,1.054,0.976,�k�k��,3.8,��
2016/10/01,12:20,1.124,1.865,1.336,2.043,1.426,0.594,1.053,0.974,�k�k��,3.2,��
2016/10/01,12:30,1.123,1.864,1.336,2.041,1.429,0.593,1.056,0.976,�k�k��,3.6,��
2016/10/01,12:40,1.123,1.864,1.334,2.042,1.424,0.594,1.053,0.974,�k�k��,3.5,��
2016/10/01,12:50,1.121,1.869,1.335,2.043,1.428,0.595,1.055,0.973,�k�k��,2.9,��
2016/10/01,13:00,1.123,1.865,1.333,2.042,1.428,0.593,1.056,0.975,�k��,3.3,��
2016/10/01,13:10,1.124,1.865,1.338,2.044,1.431,0.595,1.057,0.975,�k�k��,2.9,��
2016/10/01,13:20,1.124,1.863,1.337,2.044,1.428,0.595,1.056,0.974,�k�k��,3.4,��
2016/10/01,13:30,1.126,1.864,1.337,2.044,1.430,0.594,1.056,0.974,�k�k��,3.1,��
2016/10/01,13:40,1.126,1.870,1.338,2.042,1.429,0.595,1.056,0.974,�k�k��,3.2,��
2016/10/01,13:50,1.127,1.868,1.338,2.048,1.431,0.594,1.055,0.974,�k,4.1,��
2016/10/01,14:00,1.125,1.867,1.339,2.044,1.430,0.597,1.055,0.974,�k�k��,3.1,��
2016/10/01,14:10,1.126,1.870,1.340,2.047,1.429,0.594,1.057,0.975,�k�k��,2.8,��
2016/10/01,14:20,1.126,1.869,1.338,2.049,1.431,0.593,1.057,0.976,�k��,3.2,��
2016/10/01,14:30,1.125,1.869,1.337,2.047,1.432,0.594,1.056,0.974,�k�k��,3.2,��
2016/10/01,14:40,1.125,1.870,1.341,2.047,1.431,0.597,1.057,0.975,�k�k��,2.3,��
2016/10/01,14:50,1.126,1.867,1.338,2.047,1.432,0.594,1.056,0.976,�k,2.3,��
2016/10/01,15:00,1.126,1.868,1.339,2.047,1.433,0.595,1.057,0.976,�k�k��,2.5,��
2016/10/01,15:10,1.124,1.864,1.337,2.047,1.434,0.596,1.057,0.976,�k,2.3,��
2016/10/01,15:20,1.125,1.869,1.338,2.048,1.434,0.597,1.056,0.974,�k,2.4,��
2016/10/01,15:30,1.124,1.869,1.338,2.048,1.431,0.595,1.056,0.975,�k,2.2,��
2016/10/01,15:40,1.124,1.869,1.339,2.049,1.430,0.596,1.055,0.975,�k,2.3,��
2016/10/01,15:50,1.127,1.872,1.338,2.049,1.431,0.595,1.055,0.976,�k,1.8,��
2016/10/01,16:00,1.129,1.873,1.339,2.047,1.428,0.596,1.058,0.975,�k�k��,2.2,��
2016/10/01,16:10,1.129,1.870,1.340,2.048,1.433,0.598,1.057,0.975,�k�k��,2.3,��
2016/10/01,16:20,1.127,1.873,1.341,2.050,1.429,0.595,1.058,0.975,�k�k��,2.8,��
2016/10/01,16:30,1.127,1.876,1.341,2.048,1.428,0.596,1.058,0.975,�k�k��,1.8,��
2016/10/01,16:40,1.129,1.872,1.341,2.046,1.430,0.598,1.055,0.975,�k,2.5,��
2016/10/01,16:50,1.128,1.876,1.340,2.048,1.430,0.599,1.056,0.976,�k�k��,2.2,��
2016/10/01,17:00,1.127,1.875,1.336,2.049,1.430,0.597,1.055,0.976,�k�k��,1.6,��
2016/10/01,17:10,1.128,1.874,1.339,2.048,1.433,0.595,1.052,0.977,�k�k��,0.8,��
2016/10/01,17:20,1.129,1.868,1.339,2.046,1.431,0.599,1.056,0.977,�k�k��,1.8,��
2016/10/01,17:30,1.127,1.876,1.341,2.049,1.434,0.598,1.055,0.978,�k�k��,1.1,��
2016/10/01,17:40,1.128,1.873,1.340,2.048,1.433,0.598,1.057,0.978,�k��,1.3,��
2016/10/01,17:50,1.127,1.874,1.340,2.049,1.434,0.598,1.057,0.978,�k��,1.2,��
2016/10/01,18:00,1.127,1.876,1.341,2.048,1.434,0.598,1.056,0.977,�k��,1.5,��
2016/10/01,18:10,1.129,1.874,1.339,2.048,1.434,0.597,1.058,0.977,�k��,0.7,��
2016/10/01,18:20,1.129,1.874,1.341,2.048,1.435,0.597,1.058,0.979,�k��,1.7,��
2016/10/01,18:30,1.127,1.874,1.338,2.049,1.435,0.598,1.058,0.978,�k��,1.5,��
2016/10/01,18:40,1.129,1.875,1.340,2.048,1.434,0.598,1.057,0.978,�k��,2.2,��
2016/10/01,18:50,1.128,1.878,1.342,2.049,1.434,0.596,1.059,0.979,�k��,3.5,��
2016/10/01,19:00,1.125,1.875,1.338,2.048,1.434,0.597,1.057,0.980,�k��,3.8,��
2016/10/01,19:10,1.130,1.876,1.336,2.049,1.435,0.596,1.058,0.980,�k��,3.6,��
2016/10/01,19:20,1.128,1.871,1.342,2.050,1.432,0.597,1.056,0.977,�k��,3.3,��
2016/10/01,19:30,1.128,1.873,1.340,2.049,1.434,0.597,1.058,0.976,�k��,2.8,��
2016/10/01,19:40,1.128,1.873,1.338,2.047,1.433,0.596,1.056,0.979,�k��,2.9,��
2016/10/01,19:50,1.127,1.874,1.338,2.047,1.435,0.597,1.058,0.977,�k��,3.0,��
2016/10/01,20:00,1.130,1.874,1.339,2.048,1.435,0.596,1.057,0.978,�k��,3.5,��
2016/10/01,20:10,1.127,1.875,1.341,2.048,1.434,0.597,1.058,0.979,�k��,3.6,��
2016/10/01,20:20,1.128,1.875,1.339,2.048,1.435,0.597,1.056,0.978,�k��,4.1,��
2016/10/01,20:30,1.125,1.875,1.341,2.050,1.433,0.597,1.058,0.977,�k�k��,3.0,��
2016/10/01,20:40,1.129,1.877,1.340,2.049,1.435,0.596,1.057,0.978,�k��,3.3,��
2016/10/01,20:50,1.128,1.877,1.343,2.051,1.439,0.597,1.056,0.979,�k�k��,3.2,��
2016/10/01,21:00,1.128,1.874,1.341,2.047,1.436,0.599,1.057,0.978,�k�k��,3.5,��
2016/10/01,21:10,1.127,1.876,1.341,2.049,1.434,0.599,1.058,0.977,�k��,3.4,��
2016/10/01,21:20,1.126,1.873,1.340,2.049,1.435,0.597,1.058,0.979,�k��,3.5,��
2016/10/01,21:30,1.131,1.873,1.340,2.050,1.434,0.597,1.058,0.977,�k��,3.8,��
2016/10/01,21:40,1.130,1.876,1.343,2.051,1.435,0.598,1.057,0.977,�k��,3.8,��
2016/10/01,21:50,1.130,1.871,1.340,2.052,1.437,0.599,1.055,0.978,�k��,3.8,��
2016/10/01,22:00,1.129,1.877,1.342,2.052,1.434,0.597,1.058,0.981,�k��,3.3,��
2016/10/01,22:10,1.129,1.873,1.339,2.049,1.437,0.598,1.057,0.979,�k��,3.2,��
2016/10/01,22:20,1.128,1.876,1.344,2.050,1.435,0.597,1.056,0.980,�k�k��,2.7,��
2016/10/01,22:30,1.130,1.877,1.344,2.052,1.436,0.599,1.058,0.979,�k�k��,2.9,��
2016/10/01,22:40,1.129,1.876,1.342,2.049,1.432,0.597,1.057,0.978,�k��,4.1,��
2016/10/01,22:50,1.130,1.875,1.342,2.051,1.434,0.597,1.055,0.978,�k��,3.0,��
2016/10/01,23:00,1.129,1.874,1.340,2.048,1.435,0.599,1.056,0.977,�k��,3.0,��
2016/10/01,23:10,1.127,1.879,1.342,2.051,1.433,0.598,1.056,0.978,�k��,2.7,��
2016/10/01,23:20,1.129,1.875,1.343,2.051,1.436,0.599,1.055,0.977,�k�k��,2.9,��
2016/10/01,23:30,1.130,1.876,1.341,2.048,1.433,0.597,1.055,0.978,�k��,3.3,��
2016/10/01,23:40,1.128,1.877,1.340,2.050,1.434,0.598,1.057,0.980,�k��,3.6,��
2016/10/01,23:50,1.129,1.873,1.343,2.050,1.435,0.597,1.058,0.979,�k��,2.9,��
